Time,TemperatureF,DewpointF,PressureIn,WindDirection,WindDirectionDegrees,WindSpeedMPH,WindSpeedGustMPH,Humidity,HourlyPrecipIn,Conditions,Clouds,dailyrainin,SoftwareType,DateUTC
2013-03-17 00:00:00,56.3,49.2,29.94,SE,131,0.0,1.0,77,0.00,,---,0.00,VWS V14.01,2013-03-17 04:00:00,
2013-03-17 00:05:00,56.6,49.5,29.94,SE,131,0.0,1.0,77,0.00,,---,0.00,VWS V14.01,2013-03-17 04:05:00,
2013-03-17 00:10:00,56.8,49.7,29.94,SE,130,0.0,0.0,77,0.00,,---,0.00,VWS V14.01,2013-03-17 04:10:00,
2013-03-17 00:15:00,56.9,50.1,29.94,SE,131,0.0,0.0,78,0.00,,---,0.00,VWS V14.01,2013-03-17 04:15:00,
2013-03-17 00:20:00,56.9,50.1,29.94,SE,131,0.0,1.0,78,0.00,,---,0.00,VWS V14.01,2013-03-17 04:20:00,
2013-03-17 00:25:00,56.9,50.5,29.94,SE,131,0.0,1.0,79,0.00,,---,0.00,VWS V14.01,2013-03-17 04:25:00,
2013-03-17 00:30:00,56.9,50.1,29.94,SE,130,0.0,1.0,78,0.00,,---,0.00,VWS V14.01,2013-03-17 04:30:00,
2013-03-17 00:35:00,56.9,49.8,29.94,SE,131,0.0,1.0,77,0.00,,---,0.00,VWS V14.01,2013-03-17 04:35:00,
2013-03-17 00:40:00,57.1,50.3,29.94,SE,131,0.0,1.0,78,0.00,,---,0.00,VWS V14.01,2013-03-17 04:40:00,
2013-03-17 00:45:00,57.1,50.3,29.94,SE,131,0.0,1.0,78,0.00,,---,0.00,VWS V14.01,2013-03-17 04:45:00,
2013-03-17 00:50:00,57.0,50.2,29.94,SE,131,0.0,1.0,78,0.00,,---,0.00,VWS V14.01,2013-03-17 04:50:00,
2013-03-17 00:54:00,56.9,50.1,29.94,SE,131,0.0,1.0,78,0.00,,---,0.00,VWS V14.01,2013-03-17 04:54:00,
2013-03-17 00:59:00,56.9,50.5,29.94,SE,131,0.0,1.0,79,0.00,,---,0.00,VWS V14.01,2013-03-17 04:59:00,
2013-03-17 01:04:00,56.9,50.5,29.94,SE,131,0.0,1.0,79,0.00,,---,0.00,VWS V14.01,2013-03-17 05:04:00,
2013-03-17 01:09:00,56.9,50.5,29.94,SE,130,0.0,1.0,79,0.00,,---,0.00,VWS V14.01,2013-03-17 05:09:00,
2013-03-17 01:14:00,57.0,50.6,29.94,SE,131,0.0,1.0,79,0.00,,---,0.00,VWS V14.01,2013-03-17 05:14:00,
2013-03-17 01:19:00,57.0,50.6,29.94,SE,130,0.0,1.0,79,0.00,,---,0.00,VWS V14.01,2013-03-17 05:19:00,
2013-03-17 01:24:00,57.1,50.7,29.93,SE,130,0.0,1.0,79,0.00,,---,0.00,VWS V14.01,2013-03-17 05:24:00,
2013-03-17 01:29:00,57.1,50.7,29.94,SE,131,0.0,1.0,79,0.00,,---,0.00,VWS V14.01,2013-03-17 05:29:00,
2013-03-17 01:34:00,57.1,50.7,29.93,SE,131,0.0,1.0,79,0.00,,---,0.00,VWS V14.01,2013-03-17 05:34:00,
2013-03-17 01:39:00,57.1,50.7,29.93,SE,131,0.0,1.0,79,0.00,,---,0.00,VWS V14.01,2013-03-17 05:39:00,
2013-03-17 01:44:00,57.1,50.7,29.93,SE,131,0.0,1.0,79,0.00,,---,0.00,VWS V14.01,2013-03-17 05:44:00,
2013-03-17 01:49:00,57.0,50.6,29.93,SE,130,0.0,1.0,79,0.00,,---,0.00,VWS V14.01,2013-03-17 05:49:00,
2013-03-17 01:54:00,56.9,50.8,29.93,SE,131,0.0,1.0,80,0.00,,---,0.00,VWS V14.01,2013-03-17 05:54:00,
2013-03-17 01:59:00,56.9,50.8,29.93,SE,130,1.0,1.0,80,0.00,,---,0.00,VWS V14.01,2013-03-17 05:59:00,
2013-03-17 02:04:00,57.0,50.6,29.93,SE,131,0.0,2.0,79,0.00,,---,0.00,VWS V14.01,2013-03-17 06:04:00,
2013-03-17 02:09:00,57.2,50.8,29.93,SE,131,0.0,1.0,79,0.00,,---,0.00,VWS V14.01,2013-03-17 06:09:00,
2013-03-17 02:14:00,57.5,50.7,29.93,SE,131,0.0,1.0,78,0.00,,---,0.00,VWS V14.01,2013-03-17 06:14:00,
2013-03-17 02:19:00,57.7,50.5,29.93,SE,131,1.0,2.0,77,0.00,,---,0.00,VWS V14.01,2013-03-17 06:19:00,
2013-03-17 02:24:00,58.0,50.8,29.93,SE,130,1.0,2.0,77,0.00,,---,0.00,VWS V14.01,2013-03-17 06:24:00,
2013-03-17 02:29:00,58.2,50.7,29.93,SE,131,1.0,2.0,76,0.00,,---,0.00,VWS V14.01,2013-03-17 06:29:00,
2013-03-17 02:34:00,58.3,50.4,29.93,SE,131,0.0,2.0,75,0.00,,---,0.00,VWS V14.01,2013-03-17 06:34:00,
2013-03-17 02:39:00,58.3,50.4,29.93,SE,131,1.0,1.0,75,0.00,,---,0.00,VWS V14.01,2013-03-17 06:39:00,
2013-03-17 02:44:00,58.2,50.7,29.93,SE,130,1.0,2.0,76,0.00,,---,0.00,VWS V14.01,2013-03-17 06:44:00,
2013-03-17 02:49:00,58.1,50.9,29.93,SE,131,1.0,2.0,77,0.00,,---,0.00,VWS V14.01,2013-03-17 06:49:00,
2013-03-17 02:54:00,57.9,50.4,29.93,SE,131,1.0,2.0,76,0.00,,---,0.00,VWS V14.01,2013-03-17 06:54:00,
2013-03-17 02:59:00,57.6,50.1,29.93,SE,131,1.0,2.0,76,0.00,,---,0.00,VWS V14.01,2013-03-17 06:59:00,
2013-03-17 03:04:00,57.2,50.1,29.93,SE,131,1.0,2.0,77,0.00,,---,0.00,VWS V14.01,2013-03-17 07:04:00,
2013-03-17 03:09:00,56.6,49.5,29.93,SE,131,0.0,1.0,77,0.00,,---,0.00,VWS V14.01,2013-03-17 07:09:00,
2013-03-17 03:14:00,56.0,49.2,29.93,SE,130,0.0,1.0,78,0.00,,---,0.00,VWS V14.01,2013-03-17 07:14:00,
2013-03-17 03:19:00,55.5,49.1,29.93,SE,131,0.0,1.0,79,0.00,,---,0.00,VWS V14.01,2013-03-17 07:19:00,
2013-03-17 03:24:00,55.1,48.7,29.93,SE,130,0.0,1.0,79,0.00,,---,0.00,VWS V14.01,2013-03-17 07:24:00,
2013-03-17 03:29:00,54.8,48.8,29.93,SE,131,0.0,1.0,80,0.00,,---,0.00,VWS V14.01,2013-03-17 07:29:00,
2013-03-17 03:34:00,54.6,48.6,29.93,SE,131,0.0,1.0,80,0.00,,---,0.00,VWS V14.01,2013-03-17 07:34:00,
2013-03-17 03:39:00,54.4,48.4,29.93,SE,131,1.0,2.0,80,0.00,,---,0.00,VWS V14.01,2013-03-17 07:39:00,
2013-03-17 03:44:00,54.4,48.4,29.93,SE,131,1.0,2.0,80,0.00,,---,0.00,VWS V14.01,2013-03-17 07:44:00,
2013-03-17 03:49:00,54.3,48.3,29.93,SE,131,0.0,2.0,80,0.00,,---,0.00,VWS V14.01,2013-03-17 07:49:00,
2013-03-17 03:54:00,54.4,48.4,29.93,SE,131,1.0,2.0,80,0.00,,---,0.00,VWS V14.01,2013-03-17 07:54:00,
2013-03-17 03:59:00,54.4,48.4,29.93,SE,130,1.0,2.0,80,0.00,,---,0.00,VWS V14.01,2013-03-17 07:59:00,
2013-03-17 04:04:00,54.3,48.3,29.93,SE,130,0.0,2.0,80,0.00,,---,0.00,VWS V14.01,2013-03-17 08:04:00,
2013-03-17 04:09:00,54.1,48.1,29.92,SE,131,1.0,1.0,80,0.00,,---,0.00,VWS V14.01,2013-03-17 08:09:00,
2013-03-17 04:14:00,54.0,48.0,29.93,SE,131,1.0,1.0,80,0.00,,---,0.00,VWS V14.01,2013-03-17 08:14:00,
2013-03-17 04:19:00,54.0,48.0,29.93,SE,130,1.0,1.0,80,0.00,,---,0.00,VWS V14.01,2013-03-17 08:19:00,
2013-03-17 04:24:00,54.0,48.0,29.92,SE,130,1.0,1.0,80,0.00,,---,0.00,VWS V14.01,2013-03-17 08:24:00,
2013-03-17 04:29:00,54.2,48.2,29.92,SE,131,0.0,1.0,80,0.00,,---,0.00,VWS V14.01,2013-03-17 08:29:00,
2013-03-17 04:34:00,54.4,48.0,29.92,SE,130,0.0,2.0,79,0.00,,---,0.00,VWS V14.01,2013-03-17 08:34:00,
2013-03-17 04:39:00,54.5,48.1,29.92,SE,131,0.0,1.0,79,0.00,,---,0.00,VWS V14.01,2013-03-17 08:39:00,
2013-03-17 04:44:00,54.6,48.2,29.92,SE,131,1.0,2.0,79,0.00,,---,0.00,VWS V14.01,2013-03-17 08:44:00,
2013-03-17 04:49:00,54.6,48.2,29.92,SE,130,1.0,2.0,79,0.00,,---,0.00,VWS V14.01,2013-03-17 08:49:00,
2013-03-17 04:54:00,54.6,48.2,29.92,SE,130,1.0,2.0,79,0.00,,---,0.00,VWS V14.01,2013-03-17 08:54:00,
2013-03-17 04:59:00,54.4,48.0,29.92,SE,131,0.0,2.0,79,0.00,,---,0.00,VWS V14.01,2013-03-17 08:59:00,
2013-03-17 05:04:00,54.1,47.7,29.92,SE,131,0.0,2.0,79,0.00,,---,0.00,VWS V14.01,2013-03-17 09:04:00,
2013-03-17 05:09:00,53.9,47.9,29.93,SE,131,0.0,0.0,80,0.00,,---,0.00,VWS V14.01,2013-03-17 09:09:00,
2013-03-17 05:14:00,53.7,48.0,29.93,SE,131,0.0,0.0,81,0.00,,---,0.00,VWS V14.01,2013-03-17 09:14:00,
2013-03-17 05:19:00,53.6,47.9,29.93,SE,131,0.0,1.0,81,0.00,,---,0.00,VWS V14.01,2013-03-17 09:19:00,
2013-03-17 05:24:00,53.4,47.7,29.93,SE,131,0.0,1.0,81,0.00,,---,0.00,VWS V14.01,2013-03-17 09:24:00,
2013-03-17 05:29:00,53.2,47.5,29.93,SE,131,0.0,1.0,81,0.00,,---,0.00,VWS V14.01,2013-03-17 09:29:00,
2013-03-17 05:34:00,53.1,47.4,29.94,SE,131,1.0,1.0,81,0.00,,---,0.00,VWS V14.01,2013-03-17 09:34:00,
2013-03-17 05:39:00,53.0,47.7,29.94,SE,131,0.0,1.0,82,0.00,,---,0.00,VWS V14.01,2013-03-17 09:39:00,
2013-03-17 05:44:00,53.0,47.7,29.94,SE,130,0.0,1.0,82,0.00,,---,0.00,VWS V14.01,2013-03-17 09:44:00,
2013-03-17 05:49:00,52.9,47.6,29.94,SE,131,1.0,1.0,82,0.00,,---,0.00,VWS V14.01,2013-03-17 09:49:00,
2013-03-17 05:54:00,52.9,47.6,29.94,SE,130,0.0,2.0,82,0.00,,---,0.00,VWS V14.01,2013-03-17 09:54:00,
2013-03-17 05:59:00,53.0,47.7,29.94,East,96,0.0,2.0,82,0.00,,---,0.00,VWS V14.01,2013-03-17 09:59:00,
2013-03-17 06:04:00,53.5,47.8,29.94,East,96,1.0,2.0,81,0.00,,---,0.00,VWS V14.01,2013-03-17 10:04:00,
2013-03-17 06:09:00,54.5,48.5,29.94,ESE,107,1.0,2.0,80,0.00,,---,0.00,VWS V14.01,2013-03-17 10:09:00,
2013-03-17 06:14:00,55.5,48.4,29.94,East,91,1.0,3.0,77,0.00,,---,0.00,VWS V14.01,2013-03-17 10:14:00,
2013-03-17 06:19:00,56.2,48.8,29.95,East,91,2.0,3.0,76,0.00,,---,0.00,VWS V14.01,2013-03-17 10:19:00,
2013-03-17 06:24:00,56.6,48.8,29.95,East,91,0.0,3.0,75,0.00,,---,0.00,VWS V14.01,2013-03-17 10:24:00,
2013-03-17 06:29:00,56.9,48.7,29.95,East,91,1.0,3.0,74,0.00,,---,0.00,VWS V14.01,2013-03-17 10:29:00,
2013-03-17 06:34:00,57.1,48.9,29.95,ESE,115,0.0,5.0,74,0.00,,---,0.00,VWS V14.01,2013-03-17 10:34:00,
2013-03-17 06:39:00,57.1,48.9,29.95,East,82,1.0,3.0,74,0.00,,---,0.00,VWS V14.01,2013-03-17 10:39:00,
2013-03-17 06:44:00,57.2,50.1,29.95,East,101,0.0,3.0,77,0.00,,---,0.00,VWS V14.01,2013-03-17 10:44:00,
2013-03-17 06:49:00,57.1,48.9,29.95,East,101,0.0,3.0,74,0.00,,---,0.00,VWS V14.01,2013-03-17 10:49:00,
2013-03-17 06:54:00,56.9,49.1,29.95,East,101,0.0,3.0,75,0.00,,---,0.00,VWS V14.01,2013-03-17 10:54:00,
2013-03-17 06:59:00,56.7,48.9,29.95,East,101,0.0,3.0,75,0.00,,---,0.00,VWS V14.01,2013-03-17 10:59:00,
2013-03-17 07:04:00,56.3,48.5,29.96,NE,40,0.0,3.0,75,0.00,,---,0.00,VWS V14.01,2013-03-17 11:04:00,
2013-03-17 07:09:00,56.1,48.7,29.96,WSW,250,3.0,3.0,76,0.00,,---,0.00,VWS V14.01,2013-03-17 11:09:00,
2013-03-17 07:14:00,55.7,48.6,29.97,WSW,250,1.0,3.0,77,0.00,,---,0.00,VWS V14.01,2013-03-17 11:14:00,
2013-03-17 07:19:00,55.4,48.3,29.97,WSW,250,0.0,3.0,77,0.00,,---,0.00,VWS V14.01,2013-03-17 11:19:00,
2013-03-17 07:24:00,55.0,48.3,29.97,WSW,250,0.0,3.0,78,0.00,,---,0.00,VWS V14.01,2013-03-17 11:24:00,
2013-03-17 07:29:00,54.6,48.2,29.97,WSW,250,0.0,3.0,79,0.00,,---,0.00,VWS V14.01,2013-03-17 11:29:00,
2013-03-17 07:34:00,54.1,47.7,29.98,WSW,250,0.0,3.0,79,0.00,,---,0.00,VWS V14.01,2013-03-17 11:34:00,
2013-03-17 07:39:00,53.7,47.7,29.98,WSW,249,0.0,0.0,80,0.00,,---,0.00,VWS V14.01,2013-03-17 11:39:00,
2013-03-17 07:44:00,53.3,47.6,29.98,WSW,250,0.0,1.0,81,0.00,,---,0.00,VWS V14.01,2013-03-17 11:44:00,
2013-03-17 07:49:00,53.0,47.7,29.98,WSW,249,0.0,1.0,82,0.00,,---,0.00,VWS V14.01,2013-03-17 11:49:00,
2013-03-17 07:54:00,52.9,47.6,29.98,WSW,250,0.0,1.0,82,0.00,,---,0.00,VWS V14.01,2013-03-17 11:54:00,
2013-03-17 07:59:00,52.9,47.6,29.98,WSW,250,0.0,1.0,82,0.00,,---,0.00,VWS V14.01,2013-03-17 11:59:00,
2013-03-17 08:04:00,52.9,47.6,29.98,WSW,249,0.0,1.0,82,0.00,,---,0.00,VWS V14.01,2013-03-17 12:04:00,
2013-03-17 08:09:00,52.8,47.8,29.99,WSW,249,0.0,0.0,83,0.00,,---,0.00,VWS V14.01,2013-03-17 12:09:00,
2013-03-17 08:14:00,52.9,48.2,29.99,WSW,250,0.0,0.0,84,0.00,,---,0.00,VWS V14.01,2013-03-17 12:14:00,
2013-03-17 08:19:00,53.0,48.3,29.99,WSW,249,0.0,1.0,84,0.00,,---,0.00,VWS V14.01,2013-03-17 12:19:00,
2013-03-17 08:24:00,53.2,48.5,29.99,WSW,250,0.0,1.0,84,0.00,,---,0.00,VWS V14.01,2013-03-17 12:24:00,
2013-03-17 08:29:00,53.5,48.8,29.99,WSW,250,0.0,1.0,84,0.00,,---,0.00,VWS V14.01,2013-03-17 12:29:00,
2013-03-17 08:34:00,54.0,49.3,29.99,WSW,249,0.0,1.0,84,0.00,,---,0.00,VWS V14.01,2013-03-17 12:34:00,
2013-03-17 08:39:00,54.5,49.8,29.99,WSW,249,0.0,1.0,84,0.00,,---,0.00,VWS V14.01,2013-03-17 12:39:00,
2013-03-17 08:44:00,55.0,50.3,29.99,WSW,250,0.0,1.0,84,0.00,,---,0.00,VWS V14.01,2013-03-17 12:44:00,
2013-03-17 08:49:00,55.6,50.2,29.99,WSW,250,0.0,1.0,82,0.00,,---,0.00,VWS V14.01,2013-03-17 12:49:00,
2013-03-17 08:54:00,56.3,50.9,29.99,WSW,250,0.0,1.0,82,0.00,,---,0.00,VWS V14.01,2013-03-17 12:54:00,
2013-03-17 08:58:00,57.0,50.6,29.99,WSW,249,1.0,1.0,79,0.00,,---,0.00,VWS V14.01,2013-03-17 12:58:00,
2013-03-17 09:03:00,57.8,51.3,29.99,WSW,249,0.0,1.0,79,0.00,,---,0.00,VWS V14.01,2013-03-17 13:03:00,
2013-03-17 09:08:00,58.6,51.4,30.00,WSW,250,0.0,1.0,77,0.00,,---,0.00,VWS V14.01,2013-03-17 13:08:00,
2013-03-17 09:13:00,59.0,51.1,30.00,ENE,59,0.0,2.0,75,0.00,,---,0.00,VWS V14.01,2013-03-17 13:13:00,
2013-03-17 09:18:00,59.7,51.8,29.99,ENE,59,0.0,2.0,75,0.00,,---,0.00,VWS V14.01,2013-03-17 13:18:00,
2013-03-17 09:23:00,60.5,52.2,29.99,ENE,59,1.0,2.0,74,0.00,,---,0.00,VWS V14.01,2013-03-17 13:23:00,
2013-03-17 09:28:00,61.2,52.5,29.99,ENE,59,0.0,2.0,73,0.00,,---,0.00,VWS V14.01,2013-03-17 13:28:00,
2013-03-17 09:33:00,61.9,52.8,29.99,ENE,59,0.0,2.0,72,0.00,,---,0.00,VWS V14.01,2013-03-17 13:33:00,
2013-03-17 09:38:00,62.7,53.9,29.99,ENE,59,1.0,1.0,73,0.00,,---,0.00,VWS V14.01,2013-03-17 13:38:00,
2013-03-17 09:43:00,63.7,54.1,29.99,ENE,67,1.0,2.0,71,0.00,,---,0.00,VWS V14.01,2013-03-17 13:43:00,
2013-03-17 09:48:00,64.3,53.9,29.99,NE,37,0.0,2.0,69,0.00,,---,0.00,VWS V14.01,2013-03-17 13:48:00,
2013-03-17 09:53:00,65.0,53.8,29.99,NE,35,1.0,2.0,67,0.00,,---,0.00,VWS V14.01,2013-03-17 13:53:00,
2013-03-17 09:58:00,65.1,53.5,29.99,ESE,110,1.0,3.0,66,0.00,,---,0.00,VWS V14.01,2013-03-17 13:58:00,
2013-03-17 10:03:00,64.5,52.9,29.99,ESE,110,1.0,3.0,66,0.00,,---,0.00,VWS V14.01,2013-03-17 14:03:00,
2013-03-17 10:08:00,64.5,53.7,29.99,ESE,110,0.0,1.0,68,0.00,,---,0.00,VWS V14.01,2013-03-17 14:08:00,
2013-03-17 10:13:00,65.3,54.1,29.99,NE,45,2.0,6.0,67,0.00,,---,0.00,VWS V14.01,2013-03-17 14:13:00,
2013-03-17 10:18:00,65.8,54.5,29.99,ENE,74,1.0,6.0,67,0.00,,---,0.00,VWS V14.01,2013-03-17 14:18:00,
2013-03-17 10:23:00,66.4,55.5,29.99,East,92,1.0,6.0,68,0.00,,---,0.00,VWS V14.01,2013-03-17 14:23:00,
2013-03-17 10:28:00,67.9,55.7,29.99,WNW,297,2.0,6.0,65,0.00,,---,0.00,VWS V14.01,2013-03-17 14:28:00,
2013-03-17 10:33:00,69.2,55.2,29.99,East,90,3.0,6.0,61,0.00,,---,0.00,VWS V14.01,2013-03-17 14:33:00,
2013-03-17 10:38:00,69.3,55.3,29.99,NNE,28,1.0,2.0,61,0.00,,---,0.00,VWS V14.01,2013-03-17 14:38:00,
2013-03-17 10:43:00,69.1,54.7,29.99,ESE,113,3.0,4.0,60,0.00,,---,0.00,VWS V14.01,2013-03-17 14:43:00,
2013-03-17 10:48:00,68.3,54.8,29.99,NE,53,2.0,4.0,62,0.00,,---,0.00,VWS V14.01,2013-03-17 14:48:00,
2013-03-17 10:53:00,68.4,55.3,29.99,ENE,70,1.0,4.0,63,0.00,,---,0.00,VWS V14.01,2013-03-17 14:53:00,
2013-03-17 10:58:00,68.5,54.1,29.99,ESE,111,2.0,7.0,60,0.00,,---,0.00,VWS V14.01,2013-03-17 14:58:00,
2013-03-17 11:03:00,68.2,54.7,29.99,NE,42,3.0,7.0,62,0.00,,---,0.00,VWS V14.01,2013-03-17 15:03:00,
2013-03-17 11:08:00,68.6,55.5,29.99,East,96,1.0,4.0,63,0.00,,---,0.00,VWS V14.01,2013-03-17 15:08:00,
2013-03-17 11:13:00,69.5,56.8,29.99,North,9,0.0,4.0,64,0.00,,---,0.00,VWS V14.01,2013-03-17 15:13:00,
2013-03-17 11:18:00,71.1,57.0,29.99,NW,319,1.0,4.0,61,0.00,,---,0.00,VWS V14.01,2013-03-17 15:18:00,
2013-03-17 11:23:00,71.7,56.2,29.98,SSE,165,1.0,4.0,58,0.00,,---,0.00,VWS V14.01,2013-03-17 15:23:00,
2013-03-17 11:28:00,72.3,57.2,29.98,NW,311,1.0,4.0,59,0.00,,---,0.00,VWS V14.01,2013-03-17 15:28:00,
2013-03-17 11:33:00,72.9,56.8,29.98,NW,326,1.0,4.0,57,0.00,,---,0.00,VWS V14.01,2013-03-17 15:33:00,
2013-03-17 11:38:00,73.1,55.5,29.98,SE,146,1.0,2.0,54,0.00,,---,0.00,VWS V14.01,2013-03-17 15:38:00,
2013-03-17 11:43:00,72.8,56.7,29.97,ESE,116,2.0,3.0,57,0.00,,---,0.00,VWS V14.01,2013-03-17 15:43:00,
2013-03-17 11:48:00,73.1,56.5,29.98,NNW,328,2.0,3.0,56,0.00,,---,0.00,VWS V14.01,2013-03-17 15:48:00,
2013-03-17 11:53:00,73.5,57.3,29.97,SSW,208,1.0,3.0,57,0.00,,---,0.00,VWS V14.01,2013-03-17 15:53:00,
2013-03-17 11:58:00,73.9,56.2,29.97,SW,229,0.0,3.0,54,0.00,,---,0.00,VWS V14.01,2013-03-17 15:58:00,
2013-03-17 12:03:00,74.0,56.3,29.97,NNE,24,1.0,3.0,54,0.00,,---,0.00,VWS V14.01,2013-03-17 16:03:00,
2013-03-17 12:08:00,73.6,56.0,29.97,NW,315,1.0,2.0,54,0.00,,---,0.00,VWS V14.01,2013-03-17 16:08:00,
2013-03-17 12:13:00,73.3,56.7,29.97,NW,325,1.0,2.0,56,0.00,,---,0.00,VWS V14.01,2013-03-17 16:13:00,
2013-03-17 12:18:00,73.5,56.4,29.97,NNE,18,3.0,3.0,55,0.00,,---,0.00,VWS V14.01,2013-03-17 16:18:00,
2013-03-17 12:23:00,73.6,56.5,29.97,North,5,1.0,3.0,55,0.00,,---,0.00,VWS V14.01,2013-03-17 16:23:00,
2013-03-17 12:28:00,74.1,56.4,29.96,NW,323,1.0,3.0,54,0.00,,---,0.00,VWS V14.01,2013-03-17 16:28:00,
2013-03-17 12:33:00,74.6,57.4,29.96,East,94,3.0,3.0,55,0.00,,---,0.00,VWS V14.01,2013-03-17 16:33:00,
2013-03-17 12:38:00,74.1,56.4,29.97,West,264,1.0,4.0,54,0.00,,---,0.00,VWS V14.01,2013-03-17 16:38:00,
2013-03-17 12:43:00,73.8,57.1,29.96,WSW,254,4.0,5.0,56,0.00,,---,0.00,VWS V14.01,2013-03-17 16:43:00,
2013-03-17 12:48:00,74.4,58.7,29.96,WSW,248,4.0,5.0,58,0.00,,---,0.00,VWS V14.01,2013-03-17 16:48:00,
2013-03-17 12:53:00,75.0,57.8,29.95,North,355,1.0,5.0,55,0.00,,---,0.00,VWS V14.01,2013-03-17 16:53:00,
2013-03-17 12:58:00,75.4,57.6,29.95,NW,306,4.0,5.0,54,0.00,,---,0.00,VWS V14.01,2013-03-17 16:58:00,
2013-03-17 13:03:00,75.4,57.1,29.94,West,279,1.0,5.0,53,0.00,,---,0.00,VWS V14.01,2013-03-17 17:03:00,
2013-03-17 13:08:00,75.5,57.2,29.94,West,281,1.0,4.0,53,0.00,,---,0.00,VWS V14.01,2013-03-17 17:08:00,
2013-03-17 13:13:00,75.3,57.0,29.94,WNW,287,1.0,4.0,53,0.00,,---,0.00,VWS V14.01,2013-03-17 17:13:00,
2013-03-17 13:18:00,75.1,56.8,29.94,NW,311,1.0,4.0,53,0.00,,---,0.00,VWS V14.01,2013-03-17 17:18:00,
2013-03-17 13:23:00,74.9,57.2,29.94,SE,126,0.0,4.0,54,0.00,,---,0.00,VWS V14.01,2013-03-17 17:23:00,
2013-03-17 13:28:00,74.9,57.2,29.94,NW,312,2.0,4.0,54,0.00,,---,0.00,VWS V14.01,2013-03-17 17:28:00,
2013-03-17 13:33:00,75.2,57.4,29.94,ENE,63,1.0,5.0,54,0.00,,---,0.00,VWS V14.01,2013-03-17 17:33:00,
2013-03-17 13:38:00,75.3,55.9,29.93,South,184,2.0,4.0,51,0.00,,---,0.00,VWS V14.01,2013-03-17 17:38:00,
2013-03-17 13:43:00,75.3,57.0,29.93,ESE,123,3.0,4.0,53,0.00,,---,0.00,VWS V14.01,2013-03-17 17:43:00,
2013-03-17 13:48:00,75.3,56.5,29.93,SE,127,4.0,6.0,52,0.00,,---,0.00,VWS V14.01,2013-03-17 17:48:00,
2013-03-17 13:53:00,75.4,57.6,29.92,West,279,3.0,6.0,54,0.00,,---,0.00,VWS V14.01,2013-03-17 17:53:00,
2013-03-17 13:58:00,76.1,57.2,29.92,South,183,2.0,6.0,52,0.00,,---,0.00,VWS V14.01,2013-03-17 17:58:00,
2013-03-17 14:03:00,76.6,57.7,29.92,West,272,1.0,6.0,52,0.00,,---,0.00,VWS V14.01,2013-03-17 18:03:00,
2013-03-17 14:08:00,76.6,57.1,29.91,WSW,257,2.0,3.0,51,0.00,,---,0.00,VWS V14.01,2013-03-17 18:08:00,
2013-03-17 14:13:00,76.2,56.8,29.91,NNW,336,2.0,4.0,51,0.00,,---,0.00,VWS V14.01,2013-03-17 18:13:00,
2013-03-17 14:18:00,76.2,57.3,29.91,WSW,244,3.0,4.0,52,0.00,,---,0.00,VWS V14.01,2013-03-17 18:18:00,
2013-03-17 14:23:00,76.2,56.2,29.91,SSE,165,1.0,5.0,50,0.00,,---,0.00,VWS V14.01,2013-03-17 18:23:00,
2013-03-17 14:28:00,76.4,54.7,29.90,South,171,2.0,5.0,47,0.00,,---,0.00,VWS V14.01,2013-03-17 18:28:00,
2013-03-17 14:33:00,76.2,55.1,29.90,East,87,2.0,5.0,48,0.00,,---,0.00,VWS V14.01,2013-03-17 18:33:00,
2013-03-17 14:38:00,75.9,54.2,29.90,East,98,2.0,4.0,47,0.00,,---,0.00,VWS V14.01,2013-03-17 18:38:00,
2013-03-17 14:43:00,75.2,53.0,29.90,ESE,109,2.0,6.0,46,0.00,,---,0.00,VWS V14.01,2013-03-17 18:43:00,
2013-03-17 14:48:00,74.3,52.8,29.90,NNE,25,4.0,13.0,47,0.00,,---,0.00,VWS V14.01,2013-03-17 18:48:00,
2013-03-17 14:53:00,73.9,53.0,29.90,NNE,30,2.0,13.0,48,0.00,,---,0.00,VWS V14.01,2013-03-17 18:53:00,
2013-03-17 14:58:00,74.1,52.6,29.90,ENE,57,1.0,13.0,47,0.00,,---,0.00,VWS V14.01,2013-03-17 18:58:00,
2013-03-17 15:03:00,74.1,52.6,29.90,NNE,12,2.0,13.0,47,0.00,,---,0.00,VWS V14.01,2013-03-17 19:03:00,
2013-03-17 15:08:00,73.7,51.7,29.90,SE,128,2.0,9.0,46,0.00,,---,0.00,VWS V14.01,2013-03-17 19:08:00,
2013-03-17 15:13:00,73.3,51.9,29.90,North,9,2.0,10.0,47,0.00,,---,0.00,VWS V14.01,2013-03-17 19:13:00,
2013-03-17 15:18:00,72.9,53.2,29.90,NNE,12,2.0,10.0,50,0.00,,---,0.00,VWS V14.01,2013-03-17 19:18:00,
2013-03-17 15:23:00,73.0,53.8,29.90,WNW,288,2.0,10.0,51,0.00,,---,0.00,VWS V14.01,2013-03-17 19:23:00,
2013-03-17 15:28:00,73.6,54.9,29.90,WNW,296,1.0,10.0,52,0.00,,---,0.00,VWS V14.01,2013-03-17 19:28:00,
2013-03-17 15:33:00,74.1,54.3,29.90,West,261,2.0,10.0,50,0.00,,---,0.00,VWS V14.01,2013-03-17 19:33:00,
2013-03-17 15:38:00,74.3,54.5,29.89,WSW,252,3.0,3.0,50,0.00,,---,0.00,VWS V14.01,2013-03-17 19:38:00,
2013-03-17 15:43:00,74.3,53.9,29.89,ENE,59,2.0,5.0,49,0.00,,---,0.00,VWS V14.01,2013-03-17 19:43:00,
2013-03-17 15:48:00,74.3,55.6,29.89,SW,223,1.0,5.0,52,0.00,,---,0.00,VWS V14.01,2013-03-17 19:48:00,
2013-03-17 15:53:00,74.2,53.3,29.89,East,98,1.0,5.0,48,0.00,,---,0.00,VWS V14.01,2013-03-17 19:53:00,
2013-03-17 15:58:00,74.0,54.2,29.89,NNW,327,2.0,6.0,50,0.00,,---,0.00,VWS V14.01,2013-03-17 19:58:00,
2013-03-17 16:03:00,73.9,54.1,29.89,North,11,1.0,6.0,50,0.00,,---,0.00,VWS V14.01,2013-03-17 20:03:00,
2013-03-17 16:08:00,73.9,54.7,29.89,NW,322,1.0,2.0,51,0.00,,---,0.00,VWS V14.01,2013-03-17 20:08:00,
2013-03-17 16:13:00,73.9,53.0,29.89,NNE,24,0.0,4.0,48,0.00,,---,0.00,VWS V14.01,2013-03-17 20:13:00,
2013-03-17 16:18:00,73.7,52.8,29.88,NNE,20,1.0,4.0,48,0.00,,---,0.00,VWS V14.01,2013-03-17 20:18:00,
2013-03-17 16:23:00,73.5,53.2,29.88,NNE,30,0.0,4.0,49,0.00,,---,0.00,VWS V14.01,2013-03-17 20:23:00,
2013-03-17 16:28:00,73.5,52.1,29.88,NNE,25,4.0,4.0,47,0.00,,---,0.00,VWS V14.01,2013-03-17 20:28:00,
2013-03-17 16:33:00,73.4,53.7,29.89,West,272,2.0,4.0,50,0.00,,---,0.00,VWS V14.01,2013-03-17 20:33:00,
2013-03-17 16:38:00,73.5,53.7,29.88,NNW,338,0.0,3.0,50,0.00,,---,0.00,VWS V14.01,2013-03-17 20:38:00,
2013-03-17 16:43:00,73.5,52.6,29.88,WSW,242,5.0,5.0,48,0.00,,---,0.00,VWS V14.01,2013-03-17 20:43:00,
2013-03-17 16:48:00,73.2,50.6,29.89,ENE,73,2.0,5.0,45,0.00,,---,0.00,VWS V14.01,2013-03-17 20:48:00,
2013-03-17 16:53:00,73.0,51.6,29.89,NE,49,2.0,5.0,47,0.00,,---,0.00,VWS V14.01,2013-03-17 20:53:00,
2013-03-17 16:58:00,73.0,51.0,29.89,NNE,17,2.0,5.0,46,0.00,,---,0.00,VWS V14.01,2013-03-17 20:58:00,
2013-03-17 17:03:00,72.8,52.0,29.89,WNW,300,1.0,5.0,48,0.00,,---,0.00,VWS V14.01,2013-03-17 21:03:00,
2013-03-17 17:08:00,72.8,52.0,29.88,South,188,2.0,4.0,48,0.00,,---,0.00,VWS V14.01,2013-03-17 21:08:00,
2013-03-17 17:13:00,73.0,52.2,29.89,NNE,20,0.0,4.0,48,0.00,,---,0.00,VWS V14.01,2013-03-17 21:13:00,
2013-03-17 17:18:00,73.2,50.6,29.88,NNE,15,0.0,5.0,45,0.00,,---,0.00,VWS V14.01,2013-03-17 21:18:00,
2013-03-17 17:23:00,73.1,51.7,29.88,ENE,76,1.0,6.0,47,0.00,,---,0.00,VWS V14.01,2013-03-17 21:23:00,
2013-03-17 17:28:00,72.7,51.3,29.88,WSW,257,1.0,7.0,47,0.00,,---,0.00,VWS V14.01,2013-03-17 21:28:00,
2013-03-17 17:33:00,72.3,51.5,29.88,WNW,292,1.0,7.0,48,0.00,,---,0.00,VWS V14.01,2013-03-17 21:33:00,
2013-03-17 17:38:00,72.0,50.7,29.88,NNE,21,1.0,2.0,47,0.00,,---,0.00,VWS V14.01,2013-03-17 21:38:00,
2013-03-17 17:43:00,71.7,51.0,29.88,NNE,19,0.0,5.0,48,0.00,,---,0.00,VWS V14.01,2013-03-17 21:43:00,
2013-03-17 17:48:00,71.4,49.6,29.88,ESE,114,2.0,6.0,46,0.00,,---,0.00,VWS V14.01,2013-03-17 21:48:00,
2013-03-17 17:53:00,71.1,49.9,29.88,NE,46,3.0,6.0,47,0.00,,---,0.00,VWS V14.01,2013-03-17 21:53:00,
2013-03-17 17:58:00,70.7,49.5,29.88,East,83,4.0,6.0,47,0.00,,---,0.00,VWS V14.01,2013-03-17 21:58:00,
2013-03-17 18:03:00,70.5,49.3,29.88,East,92,1.0,6.0,47,0.00,,---,0.00,VWS V14.01,2013-03-17 22:03:00,
2013-03-17 18:08:00,70.4,49.2,29.88,North,360,1.0,6.0,47,0.00,,---,0.00,VWS V14.01,2013-03-17 22:08:00,
2013-03-17 18:13:00,70.3,49.1,29.88,ENE,65,2.0,6.0,47,0.00,,---,0.00,VWS V14.01,2013-03-17 22:13:00,
2013-03-17 18:18:00,70.1,48.4,29.88,East,93,2.0,6.0,46,0.00,,---,0.00,VWS V14.01,2013-03-17 22:18:00,
2013-03-17 18:23:00,69.8,48.7,29.88,East,93,0.0,6.0,47,0.00,,---,0.00,VWS V14.01,2013-03-17 22:23:00,
2013-03-17 18:28:00,69.6,48.5,29.88,NE,56,1.0,6.0,47,0.00,,---,0.00,VWS V14.01,2013-03-17 22:28:00,
2013-03-17 18:33:00,69.6,49.1,29.88,ENE,67,1.0,6.0,48,0.00,,---,0.00,VWS V14.01,2013-03-17 22:33:00,
2013-03-17 18:38:00,69.7,48.6,29.88,East,99,2.0,3.0,47,0.00,,---,0.00,VWS V14.01,2013-03-17 22:38:00,
2013-03-17 18:43:00,69.5,48.4,29.88,NNE,22,0.0,3.0,47,0.00,,---,0.00,VWS V14.01,2013-03-17 22:43:00,
2013-03-17 18:48:00,69.4,50.5,29.88,West,269,1.0,3.0,51,0.00,,---,0.00,VWS V14.01,2013-03-17 22:48:00,
2013-03-17 18:53:00,69.2,50.8,29.88,West,268,0.0,3.0,52,0.00,,---,0.00,VWS V14.01,2013-03-17 22:53:00,
2013-03-17 18:58:00,68.9,50.6,29.88,West,269,0.0,3.0,52,0.00,,---,0.00,VWS V14.01,2013-03-17 22:58:00,
2013-03-17 19:03:00,68.6,50.8,29.89,West,269,1.0,3.0,53,0.00,,---,0.00,VWS V14.01,2013-03-17 23:03:00,
2013-03-17 19:08:00,68.2,51.4,29.89,West,269,0.0,1.0,55,0.00,,---,0.00,VWS V14.01,2013-03-17 23:08:00,
2013-03-17 19:13:00,67.7,51.5,29.89,West,269,0.0,1.0,56,0.00,,---,0.00,VWS V14.01,2013-03-17 23:13:00,
2013-03-17 19:18:00,67.3,52.5,29.89,West,268,0.0,1.0,59,0.00,,---,0.00,VWS V14.01,2013-03-17 23:18:00,
2013-03-17 19:23:00,66.9,52.6,29.90,SSE,166,0.0,4.0,60,0.00,,---,0.00,VWS V14.01,2013-03-17 23:23:00,
2013-03-17 19:28:00,66.6,52.3,29.90,SSE,166,0.0,4.0,60,0.00,,---,0.00,VWS V14.01,2013-03-17 23:28:00,
2013-03-17 19:33:00,66.3,52.9,29.90,SSE,166,0.0,4.0,62,0.00,,---,0.00,VWS V14.01,2013-03-17 23:33:00,
2013-03-17 19:38:00,65.9,53.0,29.91,SSE,165,0.0,2.0,63,0.00,,---,0.00,VWS V14.01,2013-03-17 23:38:00,
2013-03-17 19:43:00,65.3,52.8,29.91,SE,130,0.0,2.0,64,0.00,,---,0.00,VWS V14.01,2013-03-17 23:43:00,
2013-03-17 19:48:00,64.8,52.3,29.91,SE,130,1.0,2.0,64,0.00,,---,0.00,VWS V14.01,2013-03-17 23:48:00,
2013-03-17 19:53:00,64.3,52.3,29.91,SE,130,0.0,2.0,65,0.00,,---,0.00,VWS V14.01,2013-03-17 23:53:00,
2013-03-17 19:58:00,63.7,51.7,29.91,SE,130,0.0,3.0,65,0.00,,---,0.00,VWS V14.01,2013-03-17 23:58:00,
2013-03-17 20:03:00,63.2,51.7,29.91,SE,130,0.0,3.0,66,0.00,,---,0.00,VWS V14.01,2013-03-18 00:03:00,
2013-03-17 20:08:00,62.7,51.6,29.91,SE,130,0.0,0.0,67,0.00,,---,0.00,VWS V14.01,2013-03-18 00:08:00,
2013-03-17 20:13:00,62.3,51.6,29.91,SE,130,0.0,0.0,68,0.00,,---,0.00,VWS V14.01,2013-03-18 00:13:00,
2013-03-17 20:18:00,61.8,51.1,29.91,SE,130,1.0,1.0,68,0.00,,---,0.00,VWS V14.01,2013-03-18 00:18:00,
2013-03-17 20:23:00,61.3,51.1,29.91,SE,130,0.0,1.0,69,0.00,,---,0.00,VWS V14.01,2013-03-18 00:23:00,
2013-03-17 20:28:00,60.9,51.1,29.91,SE,130,0.0,1.0,70,0.00,,---,0.00,VWS V14.01,2013-03-18 00:28:00,
2013-03-17 20:32:00,60.5,51.1,29.91,SE,130,0.0,1.0,71,0.00,,---,0.00,VWS V14.01,2013-03-18 00:32:00,
2013-03-17 20:37:00,60.1,51.1,29.92,SE,130,0.0,0.0,72,0.00,,---,0.00,VWS V14.01,2013-03-18 00:37:00,
2013-03-17 20:42:00,59.7,50.7,29.92,SE,130,0.0,1.0,72,0.00,,---,0.00,VWS V14.01,2013-03-18 00:42:00,
2013-03-17 20:47:00,59.3,50.7,29.92,SE,130,0.0,1.0,73,0.00,,---,0.00,VWS V14.01,2013-03-18 00:47:00,
2013-03-17 20:52:00,59.0,50.7,29.92,SE,130,0.0,1.0,74,0.00,,---,0.00,VWS V14.01,2013-03-18 00:52:00,
2013-03-17 20:57:00,59.0,51.1,29.92,SE,130,0.0,1.0,75,0.00,,---,0.00,VWS V14.01,2013-03-18 00:57:00,
2013-03-17 21:02:00,58.8,50.9,29.92,SE,130,0.0,1.0,75,0.00,,---,0.00,VWS V14.01,2013-03-18 01:02:00,
2013-03-17 21:07:00,58.5,51.0,29.92,SE,130,0.0,0.0,76,0.00,,---,0.00,VWS V14.01,2013-03-18 01:07:00,
2013-03-17 21:12:00,58.1,50.6,29.92,SE,130,0.0,0.0,76,0.00,,---,0.00,VWS V14.01,2013-03-18 01:12:00,
2013-03-17 21:17:00,57.9,50.7,29.92,SE,130,0.0,0.0,77,0.00,,---,0.00,VWS V14.01,2013-03-18 01:17:00,
2013-03-17 21:22:00,57.6,50.8,29.92,SE,130,0.0,0.0,78,0.00,,---,0.00,VWS V14.01,2013-03-18 01:22:00,
2013-03-17 21:27:00,57.3,50.5,29.92,SE,130,0.0,0.0,78,0.00,,---,0.00,VWS V14.01,2013-03-18 01:27:00,
2013-03-17 21:32:00,57.1,50.7,29.91,SE,130,0.0,0.0,79,0.00,,---,0.00,VWS V14.01,2013-03-18 01:32:00,
2013-03-17 21:37:00,56.8,50.4,29.91,SE,130,0.0,1.0,79,0.00,,---,0.00,VWS V14.01,2013-03-18 01:37:00,
2013-03-17 21:42:00,56.7,50.3,29.92,SE,130,0.0,1.0,79,0.00,,---,0.00,VWS V14.01,2013-03-18 01:42:00,
2013-03-17 21:47:00,56.6,50.5,29.91,SE,130,0.0,1.0,80,0.00,,---,0.00,VWS V14.01,2013-03-18 01:47:00,
2013-03-17 21:52:00,56.3,50.2,29.91,SE,130,0.0,1.0,80,0.00,,---,0.00,VWS V14.01,2013-03-18 01:52:00,
2013-03-17 21:57:00,56.1,50.0,29.92,SE,130,0.0,1.0,80,0.00,,---,0.00,VWS V14.01,2013-03-18 01:57:00,
2013-03-17 22:02:00,55.9,50.2,29.92,SE,130,0.0,1.0,81,0.00,,---,0.00,VWS V14.01,2013-03-18 02:02:00,
2013-03-17 22:07:00,55.6,49.9,29.92,SE,130,0.0,0.0,81,0.00,,---,0.00,VWS V14.01,2013-03-18 02:07:00,
2013-03-17 22:12:00,55.4,50.0,29.92,SE,130,0.0,1.0,82,0.00,,---,0.00,VWS V14.01,2013-03-18 02:12:00,
2013-03-17 22:17:00,55.3,49.9,29.91,SE,130,0.0,1.0,82,0.00,,---,0.00,VWS V14.01,2013-03-18 02:17:00,
2013-03-17 22:22:00,55.2,49.8,29.91,SE,130,0.0,1.0,82,0.00,,---,0.00,VWS V14.01,2013-03-18 02:22:00,
2013-03-17 22:27:00,55.0,49.6,29.91,SE,130,0.0,1.0,82,0.00,,---,0.00,VWS V14.01,2013-03-18 02:27:00,
2013-03-17 22:32:00,54.9,49.8,29.91,SE,130,0.0,1.0,83,0.00,,---,0.00,VWS V14.01,2013-03-18 02:32:00,
2013-03-17 22:37:00,54.8,49.7,29.92,SE,130,0.0,0.0,83,0.00,,---,0.00,VWS V14.01,2013-03-18 02:37:00,
2013-03-17 22:42:00,54.7,49.7,29.92,SE,130,0.0,0.0,83,0.00,,---,0.00,VWS V14.01,2013-03-18 02:42:00,
2013-03-17 22:47:00,54.5,49.5,29.92,SE,130,0.0,0.0,83,0.00,,---,0.00,VWS V14.01,2013-03-18 02:47:00,
2013-03-17 22:52:00,54.4,49.7,29.92,SE,130,0.0,0.0,84,0.00,,---,0.00,VWS V14.01,2013-03-18 02:52:00,
2013-03-17 22:57:00,54.3,49.6,29.92,SE,130,0.0,0.0,84,0.00,,---,0.00,VWS V14.01,2013-03-18 02:57:00,
2013-03-17 23:02:00,54.1,49.4,29.92,SE,130,0.0,1.0,84,0.00,,---,0.00,VWS V14.01,2013-03-18 03:02:00,
2013-03-17 23:07:00,54.1,49.4,29.92,SE,130,0.0,0.0,84,0.00,,---,0.00,VWS V14.01,2013-03-18 03:07:00,
2013-03-17 23:12:00,53.9,49.2,29.92,SE,130,0.0,1.0,84,0.00,,---,0.00,VWS V14.01,2013-03-18 03:12:00,
2013-03-17 23:17:00,53.8,49.4,29.92,SE,130,0.0,1.0,85,0.00,,---,0.00,VWS V14.01,2013-03-18 03:17:00,
2013-03-17 23:22:00,53.7,49.3,29.92,SE,130,0.0,1.0,85,0.00,,---,0.00,VWS V14.01,2013-03-18 03:22:00,
2013-03-17 23:27:00,53.6,49.2,29.92,SE,130,0.0,1.0,85,0.00,,---,0.00,VWS V14.01,2013-03-18 03:27:00,
2013-03-17 23:32:00,53.5,49.1,29.92,SE,130,0.0,1.0,85,0.00,,---,0.00,VWS V14.01,2013-03-18 03:32:00,
2013-03-17 23:37:00,53.3,48.9,29.93,SE,130,0.0,0.0,85,0.00,,---,0.00,VWS V14.01,2013-03-18 03:37:00,
2013-03-17 23:42:00,53.2,48.8,29.92,SE,130,0.0,0.0,85,0.00,,---,0.00,VWS V14.01,2013-03-18 03:42:00,
2013-03-17 23:47:00,53.1,49.0,29.93,SE,130,0.0,1.0,86,0.00,,---,0.00,VWS V14.01,2013-03-18 03:47:00,
2013-03-17 23:52:00,53.1,49.0,29.92,SE,130,0.0,1.0,86,0.00,,---,0.00,VWS V14.01,2013-03-18 03:52:00,
2013-03-17 23:57:00,53.1,49.0,29.93,SE,130,0.0,1.0,86,0.00,,---,0.00,VWS V14.01,2013-03-18 03:57:00,